Cloud_Cover
100 100 100 51 58 87 100 100 100 100 97 5 100 68 100 8 100 44 71 21 85 100 34 0 0 0 0 0 0 1 5 4 5 36 2 0 0 0 0 4 71 58 40 68 43
99 95 100 100 95 98 100 100 100 100 9 41 92 100 100 91 42 14 10 52 66 100 100 26 0 0 0 0 0 5 19 5 1 0 3 0 0 0 0 0 5 66 100 100 100
100 100 100 100 100 100 84 100 99 100 86 88 85 100 100 100 10 79 37 83 5 82 100 99 5 0 5 1 0 0 17 5 27 5 5 1 0 0 0 2 2 4 5 5 61
100 100 100 100 100 100 100 100 100 100 100 84 100 100 100 57 44 100 100 90 94 6 99 100 13 4 5 5 0 0 5 5 17 5 5 5 5 0 0 0 5 5 2 0 0
100 100 100 100 100 100 100 100 100 100 100 100 100 100 85 100 42 81 100 100 79 20 53 100 51 5 5 4 4 0 3 5 5 9 5 5 3 0 4 4 0 0 0 0 0
100 100 100 100 100 100 84 88 100 100 100 100 100 100 100 100 100 10 99 100 100 100 62 100 42 16 5 5 4 0 0 0 7 61 14 5 5 5 5 0 0 0 0 0 0
100 100 100 100 100 100 91 71 100 100 100 100 100 100 100 100 68 94 100 100 100 100 88 100 16 61 86 6 32 0 0 0 5 5 19 6 5 56 5 5 5 5 4 4 3
100 100 100 100 100 100 100 100 100 100 100 100 100 100 100 100 40 82 89 100 100 100 100 100 54 52 100 96 73 5 5 4 0 1 5 5 13 81 82 34 7 26 5 32 82
100 100 100 100 100 100 100 100 100 100 100 100 99 100 100 100 100 100 33 77 100 100 100 100 100 9 100 100 100 98 69 7 2 0 4 15 81 5 15 6 40 14 30 71 47
100 100 100 100 100 100 51 100 100 100 100 100 100 100 100 100 100 100 82 99 100 100 100 100 100 44 100 100 100 6 100 85 5 5 5 20 100 27 10 84 56 5 5 5 62
100 100 100 100 100 73 97 100 100 100 100 100 100 100 100 100 100 100 100 100 100 100 100 100 100 100 100 100 100 100 100 100 16 3 34 100 100 100 5 26 5 5 5 47 98
100 100 100 100 100 100 47 95 100 100 79 100 100 100 100 100 100 100 74 82 100 100 100 92 100 100 100 100 98 37 74 100 26 0 6 13 100 100 42 90 99 83 73 25 7
91 100 100 100 100 100 99 100 97 100 98 100 100 100 100 100 100 100 100 100 100 100 97 100 100 100 100 100 99 96 97 100 20 4 5 5 86 100 82 64 99 100 29 46 94
100 100 100 100 100 100 100 100 100 100 92 23 100 100 100 100 95 100 100 100 100 100 100 99 100 100 100 100 83 27 91 56 100 58 4 5 85 100 99 90 100 99 97 100 100
100 100 100 100 100 100 100 100 100 100 100 34 18 100 100 100 100 100 100 100 100 100 100 100 100 100 100 100 100 100 100 44 87 16 5 55 5 100 100 90 98 100 100 100 100
100 100 100 100 100 100 100 100 100 100 100 5 12 95 100 100 100 100 100 100 100 100 100 100 100 100 100 100 100 86 60 45 88 76 25 100 68 98 80 100 100 100 100 100 100
100 100 100 100 100 100 100 100 100 100 100 34 76 90 88 100 100 100 83 96 100 100 100 100 100 100 100 100 100 100 100 61 65 36 21 44 9 100 100 100 100 100 100 100 100
100 100 100 100 100 100 100 100 100 100 100 98 100 24 30 100 100 100 100 88 76 91 100 100 100 100 100 100 100 100 100 100 100 28 5 47 58 100 100 100 100 100 100 100 100
100 100 100 100 100 100 100 100 100 100 100 100 100 100 91 42 100 100 100 100 100 79 97 99 100 100 100 100 100 100 91 100 100 84 64 52 69 100 100 100 100 100 98 100 100
6 73 95 100 100 100 100 100 100 100 100 100 100 99 95 60 100 100 100 75 100 100 100 87 98 100 100 100 100 100 84 100 100 100 85 22 85 82 79 92 100 100 100 100 100
47 83 5 100 100 100 100 100 100 100 100 100 100 100 100 98 91 72 76 24 77 100 100 100 96 53 53 99 100 100 52 88 100 97 86 15 8 100 98 100 100 100 100 100 85
100 91 6 96 100 100 100 100 100 100 100 100 100 100 100 100 100 100 27 100 100 100 100 100 100 100 100 100 100 97 82 100 100 100 99 65 74 100 100 100 100 100 100 100 100
100 46 3 33 100 100 100 100 100 100 100 100 100 100 100 100 100 100 100 100 100 100 100 100 100 100 98 100 100 100 100 100 100 100 100 100 97 100 98 99 93 100 100 74 92
100 100 99 98 100 100 100 100 100 100 100 100 100 100 100 100 100 100 100 100 100 100 100 100 100 94 86 87 94 31 69 93 100 99 100 66 98 100 100 100 61 91 100 72 9
100 100 99 92 100 100 100 100 100 100 100 100 100 100 100 100 100 100 100 100 100 100 100 100 100 98 100 100 48 31 79 96 100 100 100 100 95 100 100 99 97 91 100 100 100
100 98 100 89 87 100 100 95 100 100 100 100 100 100 100 100 100 100 100 100 100 100 100 100 100 100 100 100 85 38 5 79 100 100 100 83 10 100 100 86 58 6 23 80 100
100 100 100 10 87 100 100 100 100 100 100 100 100 100 100 100 100 100 100 100 100 100 100 100 100 100 100 100 96 52 100 100 100 100 100 83 98 100 100 90 47 45 4 5 5